Regional Weather Roundup
Issued by NWS

Home | Current Version | Previous Version | Graphics & Text | Print | Product List | Glossary On
Versions: 1 2 3 4 5 6 7 8 9 10 11 12 13 14 15 16 17 18 19 20 21 22 23 24 25 26 27 28 29 30 31 32 33 34 35 36 37 38 39 40 41 42 43 44 45 46 47 48 49 50
000
ASUS43 KMPX 042301
RWRMN
WEATHER ROUNDUP FOR MINNESOTA
NATIONAL WEATHER SERVICE TWIN CITIES/CHANHASSEN MN
600 PM CDT MON MAY 04 2015


NOTE: "FAIR" INDICATES FEW OR NO CLOUDS BELOW 12,000 FEET WITH NO
SIGNIFICANT WEATHER AND/OR OBSTRUCTIONS TO VISIBILITY. N/A MEANS
CURRENT SKY AND/OR WEATHER CONDITIONS ARE NOT AVAILABLE.

MNZ060>063-068>070-050000-
   Twin Cities Metro

CITY           SKY/WX    TMP DP  RH WIND       PRES   REMARKS
TWIN CITIES    PTSUNNY   71  25  17 N6G21     30.16S
ST PAUL        PTSUNNY   69  28  21 N7        30.16S
CRYSTAL        PTSUNNY   71  28  20 NE8       30.15S
LAKEVILLE      PTSUNNY   68  34  28 NE7       30.17R
EDEN PRAIRIE   PTSUNNY   70  30  22 NE12      30.15S
SOUTH ST PAUL  FAIR      70  29  21 NE3       30.16S
LAKE ELMO      FAIR      68  32  26 N7        30.18R
$$
MNZ001>005-007-008-013>017-022>024-027-028-050000-
   Northwest Minnesota

CITY           SKY/WX    TMP DP  RH WIND       PRES   REMARKS
BEMIDJI        SUNNY     64  24  22 E7        30.18F
HALLOCK        SUNNY     70  14  11 W8        30.14S
ROSEAU         MOSUNNY   66  25  20 W9        30.16S
WARROAD        SUNNY     64  34  32 W10G20    30.16F
THIEF RVR FALL SUNNY     66  25  20 NW7       30.18S
CROOKSTON      SUNNY     66  25  20 CALM      30.17F
FOSSTON        SUNNY     70  21  16 CALM      30.18F
DETROIT LAKES  MOSUNNY   64  28  25 SW5       30.20S
MOORHEAD       SUNNY     68  23  18 CALM      30.17F
PARK RAPIDS    MOSUNNY   65  26  23 CALM      30.18F
MAHNOMEN       FAIR      66  25  21 SE5       30.17S
$$
MNZ006-009>011-018-025>026-050000-
   North Central Minnesota

CITY           SKY/WX    TMP DP  RH WIND       PRES   REMARKS
BAUDETTE       PTSUNNY   64  25  22 W7        30.17S
FLAG ISLAND    MOSUNNY   55  37  50 SE8       30.15F
INTL FALLS     SUNNY     63  24  22 W6        30.18F
WASKISH        SUNNY     63  30  29 CALM      30.19F
BIG FORK       SUNNY     66  21  18 W5        30.19R
LONGVILLE      MOSUNNY   64  18  16 CALM      30.19F
GRAND RAPIDS   SUNNY     63  21  20 CALM      30.20S
CRANE LAKE     SUNNY     61  27  27 N7        30.21S
ORR            SUNNY     64  19  17 NW8       30.16S
COOK           MOSUNNY   64  25  22 N8        30.19S
WALKER         FAIR      63  24  23 SE3       30.19S
$$
MNZ012-019>021-037-050000-
   Northeast Minnesota

CITY           SKY/WX    TMP DP  RH WIND       PRES   REMARKS
DULUTH         PTSUNNY   65  18  16 CALM      30.18S
ELY            SUNNY     63  19  19 NW6       30.19R
HIBBING        MOSUNNY   65  19  17 CALM      30.18S
EVELETH        MOSUNNY   63  21  20 N7        30.19S
DULUTH HARBOR  PTSUNNY   66  16  14 SE5       30.18S
TWO HARBORS    PTSUNNY   66  32  28 S9        30.16R
SILVER BAY     MOSUNNY   64  21  19 S10       30.17S
GRAND MARAIS     N/A     50  34  54 W8        30.19R
G MARAIS ARPRT SUNNY     59  25  27 CALM      30.19R
$$
MNZ029>031-032-039>041-046>048-054>057-064-050000-
   West Central Minnesota

CITY           SKY/WX    TMP DP  RH WIND       PRES   REMARKS
FERGUS FALLS   MOSUNNY   66  32  28 E6        30.18S
WHEATON        MOSUNNY   66  27  22 N7        30.18S
MORRIS         MOSUNNY   68  27  21 CALM      30.16S
ALEXANDRIA     MOSUNNY   66  28  24 NW7       30.19S
ELBOW LAKE     FAIR      65  32  28 E5        30.18S
WADENA         PTSUNNY   63  30  29 N6        30.19S
GLENWOOD       MOSUNNY   68  28  22 NE6       30.19R
APPLETON       MOSUNNY   70  21  16 E6        30.16S
BENSON         PTSUNNY   70  23  17 NE6       30.17R
ORTONVILLE     MOSUNNY   70  25  18 E8        30.16S
MADISON        PTSUNNY   70  23  17 NE8       30.16R
WILLMAR        FAIR      70  30  23 NE8       30.18R
$$
MNZ033>034-036-042>043-049>051-058-059-050000-
   Central Minnesota

CITY           SKY/WX    TMP DP  RH WIND       PRES   REMARKS
ST CLOUD       PTSUNNY   66  31  27 E9        30.17S
SAUK CENTRE    FAIR      67  32  27 E3        30.18S
PAYNESVILLE    MOSUNNY   65  30  27 N6        30.18S
AITKIN         PTSUNNY   64   9  11 NW5       30.18S
PINE RIVER     PTSUNNY   63  32  31 CALM      30.22S
BRAINERD       PTSUNNY   63  15  15 NE7       30.20S
STAPLES        MOSUNNY   64  27  24 N6        30.19S
LONG PRAIRIE   FAIR      64  32  29 NW5       30.19S
LITTLE FALLS   MOSUNNY   64  28  25 E5        30.19R
LITCHFIELD     CLOUDY    70  28  21 NE7       30.17S
BUFFALO        PTSUNNY   67  24  19 N7        30.19R
MAPLE LAKE     PTSUNNY   70  35  28 E8        30.18S
$$
MNZ037-044-045-052-053-050000-
   East Central Minnesota

CITY           SKY/WX    TMP DP  RH WIND       PRES   REMARKS
PRINCETON      PTSUNNY   66  28  24 N7        30.19R
MORA           PTSUNNY   64  30  27 N7        30.20S
CAMBRIDGE      PTSUNNY   70  43  37 N9        30.16S
RUSH CITY      PTSUNNY   66  27  23 N8        30.18S
MOOSE LAKE     MOSUNNY   64  27  24 CALM      30.17S
HINCKLEY       FAIR      68  27  21 N8        30.18S
CLOQUET        PTSUNNY   64   9  11 NW6       30.19S
MCGREGOR       MOSUNNY   64  19  17 N5        30.20S
$$
MNZ071>073-080-081-089-090-097-098-050000-
   Southwest Minnesota

CITY           SKY/WX    TMP DP  RH WIND       PRES   REMARKS
MONTEVIDEO     PTSUNNY   72  27  18 E8G18     30.17R
GRANITE FALLS  PTSUNNY   70  24  18 E7        30.18R
CANBY          PTSUNNY   70  22  16 E9        30.16F
MARSHALL       PTSUNNY   70  25  18 E10       30.15R
REDWOOD FALLS  PTSUNNY   73  26  17 E10G17    30.14S
OLIVIA         PTSUNNY   68  27  21 NE5       30.15S
PIPESTONE      CLOUDY    70  19  14 E6        30.14S
WINDOM         CLOUDY    70  27  19 E10       30.16S
WORTHINGTON    CLOUDY    66  28  24 E14       30.16R
JACKSON        CLOUDY    68  21  17 NE13      30.16S
TRACY          PTSUNNY   72  29  20 E10       30.15R
SLAYTON        CLOUDY    69  23  17 E6G16     30.16R
$$
MNZ065>067-074>077-082>085-091>093-050000-
   South Central Minnesota

CITY           SKY/WX    TMP DP  RH WIND       PRES   REMARKS
MANKATO        CLOUDY    66  34  30 E8        30.16S
NEW ULM        PTSUNNY   68  28  22 E13       30.15S
ST JAMES       PTSUNNY   70  25  18 E9        30.17R
FAIRMONT       PTSUNNY   70  27  19 NE12      30.15S
GLENCOE        PTSUNNY   69  32  25 NE3       30.16S
FARIBAULT      CLOUDY    66  28  24 NE7       30.17S
OWATONNA       CLOUDY    66  32  28 NE8       30.16S
WASECA         CLOUDY    64  34  32 NE9       30.18R
ALBERT LEA     PTSUNNY   66  34  30 E10       30.16R
$$
MNZ078>079-086>088-094>096-050000-
   Southeast Minnesota

CITY           SKY/WX    TMP DP  RH WIND       PRES   REMARKS
ROCHESTER      CLOUDY    65  40  39 NE8       30.17S
RED WING       CLOUDY    70  27  19 E5        30.15S
STANTON        CLOUDY    69  28  21 E10       30.15S
DODGE CENTER   CLOUDY    66  32  28 E9        30.17R
WINONA         PTSUNNY   70  36  28 E3        30.16R
AUSTIN         CLOUDY    64  39  39 NE10      30.16R
PRESTON        CLOUDY    64  41  44 NE7       30.16S
$$
ABBREVIATIONS USED IN REMARKS
   TC - TEMPERATURES IN CELSIUS
  WCI - WIND CHILL INDEX
   HX - HEAT INDEX
  VSB - VISIBILITY
$$


USA.gov is the U.S. government's official web portal to all federal, state and local government web resources and services.